Location: Paderno d�Adda
(45.6667°N, 9.4333°E)
Time: 05:12:12
(UTC+00:00)

CENTAUR R/B - Pass Details

Date: 22 January 2021
Orbit: 742 x 1446 km, 63.5° (Epoch: 02 March)

Event Time Altitude Azimuth Distance (km) Brightness Sun altitude
Rises 05:38:32 0° 196° (SSW) 3,340 5.3 -13.1°
Reaches altitude 10° 05:40:53 10° 190° (S) 2,482 4.7 -12.7°
Maximum altitude 05:46:23 48° 117° (ESE) 1,225 3.6 -11.8°
Drops below altitude 10° 05:52:53 10° 46° (NE) 2,937 5.4 -10.7°
Sets 05:55:53 0° 41° (NE) 4,014 6.0 -10.2°
